Location: 10033 Water Well
(34.0865°N, 106.8959°W)
Time: 21:58:15
(UTC+00:00)

ARIANE 5 R/B - Pass Details

Date: 13 January 2026
Orbit: 746 x 793 km, 98.8° (Epoch: 11 February)

Event Time Altitude Azimuth Distance (km) Brightness Sun altitude
Rises 00:44:45 0° 159° (SSE) 3,267 5.8 -5.8°
Reaches altitude 10° 00:47:04 10° 157° (SSE) 2,345 5.0 -6.2°
Maximum altitude 00:52:13 70° 74° (ENE) 843 2.5 -7.2°
Drops below altitude 10° 00:57:25 10° 352° (N) 2,363 4.9 -8.2°
Sets 00:59:45 0° 350° (N) 3,294 5.7 -8.7°
